GW5597 Weather Reports


time (UTC)temp
C
wind
direction
speed
KPH
gust
KPH
rain 1hr
cm
rain 24hr
cm
rain mn
cm
humidity
%
barometer
mb
20260507110012 11 0 1.6 3.2 0.00 0.00 0.00 78 1020.2
20260507105512 11 8 1.6 3.2 0.00 0.00 0.00 78 1020.2
20260507105500 11 0 0.0 3.2 0.00 0.00 0.00 78 1020.3
20260507104459 11 31 0.0 3.2 0.00 0.00 0.00 78 1020.3
20260507103958 11 0 1.6 3.2 0.00 0.00 0.00 78 1020.3
20260507103723 11 63 1.6 3.2 0.00 0.00 0.00 78 1020.4
20260507102959 12 335 1.6 3.2 0.00 0.00 0.00 78 1020.4
20260507102459 12 294 1.6 6.4 0.00 0.00 0.00 78 1020.4
20260507102224 12 316 1.6 6.4 0.00 0.00 0.00 78 1020.4
20260507101500 12 328 1.6 4.8 0.00 0.00 0.00 78 1020.5
20260507101210 12 319 1.6 4.8 0.00 0.00 0.00 78 1020.5
20260507100651 12 339 1.6 3.2 0.00 0.00 0.00 78 1020.5
20260507095930 12 330 1.6 4.8 0.00 0.00 0.00 78 1020.5
20260507095431 12 317 1.6 4.8 0.00 0.00 0.00 79 1020.6
20260507094930 12 17 1.6 4.8 0.00 0.00 0.00 79 1020.6
20260507094429 12 327 1.6 4.8 0.00 0.00 0.00 79 1020.6
20260507093930 12 324 1.6 3.2 0.00 0.00 0.00 78 1020.6
20260507093430 12 92 1.6 3.2 0.00 0.00 0.00 78 1020.7
20260507092930 12 346 1.6 3.2 0.00 0.00 0.00 78 1020.7
20260507092430 12 299 0.0 3.2 0.00 0.00 0.00 77 1020.8
20260507092152 12 108 0.0 3.2 0.00 0.00 0.00 77 1020.8
20260507091430 12 100 1.6 3.2 0.00 0.00 0.00 77 1020.8
20260507090930 12 349 1.6 3.2 0.00 0.00 0.00 77 1020.8
20260507090416 12 9 1.6 4.8 0.00 0.00 0.00 77 1020.8
20260507085916 12 311 3.2 4.8 0.00 0.00 0.00 77 1020.9
20260507085417 12 302 1.6 4.8 0.00 0.00 0.00 76 1020.8
20260507084915 12 318 1.6 3.2 0.00 0.00 0.00 76 1020.8
20260507084635 12 337 1.6 3.2 0.00 0.00 0.00 76 1020.8
20260507083914 12 306 1.6 3.2 0.00 0.00 0.00 76 1020.8
20260507083415 12 6 1.6 3.2 0.00 0.00 0.00 76 1020.8
20260507082914 12 312 1.6 3.2 0.00 0.00 0.00 76 1020.9
20260507082415 12 343 1.6 3.2 0.00 0.00 0.00 77 1020.9
20260507081901 12 302 1.6 4.8 0.00 0.00 0.00 77 1020.9
20260507081621 12 351 1.6 4.8 0.00 0.00 0.00 77 1020.9
20260507080902 12 304 1.6 4.8 0.00 0.00 0.00 77 1020.9
20260507080632 12 352 1.6 4.8 0.00 0.00 0.00 77 1020.8
20260507075905 12 313 1.6 4.8 0.00 0.00 0.00 78 1020.9
20260507075406 12 312 1.6 4.8 0.00 0.00 0.00 78 1020.9
20260507074906 12 334 1.6 4.8 0.00 0.00 0.00 79 1020.9
20260507074406 12 307 1.6 3.2 0.00 0.00 0.00 79 1020.9
20260507073906 12 59 1.6 3.2 0.00 0.00 0.00 79 1020.9
20260507073858 12 298 1.6 3.2 0.00 0.00 0.00 79 1020.9
20260507072906 12 337 1.6 3.2 0.00 0.00 0.00 79 1020.8
20260507072406 12 34 1.6 3.2 0.00 0.00 0.00 79 1020.8
20260507071906 12 285 1.6 4.8 0.00 0.00 0.00 79 1020.8
20260507071352 12 350 1.6 4.8 0.00 0.00 0.00 79 1020.8
20260507071118 12 348 1.6 3.2 0.00 0.00 0.00 79 1020.7
20260507070836 12 298 1.6 3.2 0.00 0.00 0.00 79 1020.7
20260507065834 12 275 1.6 3.2 0.00 0.00 0.00 79 1020.7
20260507065334 12 304 1.6 3.2 0.00 0.00 0.00 78 1020.7
20260507064834 12 338 1.6 3.2 0.00 0.00 0.00 79 1020.7
20260507063334 12 97 3.2 4.8 0.00 0.00 0.00 79 1020.8
20260507062834 12 0 3.2 6.4 0.00 0.00 0.00 79 1020.8
20260507062335 12 313 3.2 6.4 0.00 0.00 0.00 79 1020.8
20260507061818 13 301 1.6 4.8 0.00 0.00 0.00 79 1020.8
20260507061320 13 354 1.6 6.4 0.00 0.00 0.00 80 1020.9
20260507060820 13 317 3.2 6.4 0.00 0.00 0.00 80 1020.9
20260507060320 13 325 3.2 4.8 0.00 0.00 0.00 79 1020.8
20260507055819 13 314 1.6 4.8 0.00 0.00 0.00 79 1020.8
20260507055320 13 299 1.6 4.8 0.00 0.00 0.00 80 1020.9
20260507054821 13 341 3.2 6.4 0.00 0.00 0.00 79 1020.9
20260507054320 13 326 3.2 6.4 0.00 0.00 0.00 79 1020.8
20260507053821 13 301 3.2 6.4 0.00 0.00 0.00 80 1020.8
20260507053321 13 298 3.2 6.4 0.00 0.00 0.00 79 1020.8
20260507052805 13 326 1.6 4.8 0.00 0.00 0.00 79 1020.8
20260507052525 13 312 3.2 4.8 0.00 0.00 0.00 79 1020.8
20260507051750 13 331 3.2 4.8 0.00 0.00 0.00 79 1020.8
20260507051249 13 315 3.2 6.4 0.00 0.00 0.00 79 1020.8
20260507050750 13 42 3.2 6.4 0.00 0.00 0.00 79 1020.8
20260507050250 13 298 3.2 6.4 0.00 0.00 0.00 78 1020.8
20260507045749 13 307 3.2 6.4 0.00 0.00 0.00 78 1020.8
20260507045250 13 4 3.2 4.8 0.00 0.00 0.00 78 1020.8
20260507044750 13 332 3.2 6.4 0.00 0.00 0.00 78 1020.8
20260507044250 13 320 3.2 6.4 0.00 0.00 0.00 77 1020.8
20260507043750 13 314 3.2 6.4 0.00 0.00 0.00 77 1020.8
20260507043250 13 359 3.2 4.8 0.00 0.00 0.00 77 1020.8
20260507042738 13 337 3.2 6.4 0.00 0.00 0.00 77 1020.7
20260507042226 13 310 3.2 6.4 0.00 0.00 0.00 77 1020.6
20260507041726 14 294 3.2 6.4 0.00 0.00 0.00 77 1020.6
20260507041446 14 353 3.2 3.2 0.00 0.00 0.00 76 1020.6
20260507040726 14 332 3.2 4.8 0.00 0.00 0.00 76 1020.5
20260507040227 14 357 3.2 6.4 0.00 0.00 0.00 76 1020.5
20260507035726 14 344 4.8 6.4 0.00 0.00 0.00 76 1020.4
20260507035221 14 334 4.8 8.0 0.00 0.00 0.00 76 1020.4
20260507035202 14 311 4.8 8.0 0.00 0.00 0.00 76 1020.3
20260507034210 15 305 3.2 8.0 0.00 0.00 0.00 75 1020.2
20260507033708 15 355 3.2 4.8 0.00 0.00 0.00 75 1020.1
20260507033207 15 313 3.2 6.4 0.00 0.00 0.00 75 1020.1
20260507032707 15 13 3.2 6.4 0.00 0.00 0.00 76 1020.0
20260507032157 15 316 3.2 6.4 0.00 0.00 0.00 75 1020.0
20260507031657 15 305 3.2 6.4 0.00 0.00 0.00 75 1019.9
20260507031157 15 305 3.2 6.4 0.00 0.00 0.00 75 1019.9
20260507030657 15 321 3.2 8.0 0.00 0.00 0.00 75 1019.8
20260507030158 15 334 3.2 8.0 0.00 0.00 0.00 75 1019.7
20260507025657 16 313 3.2 8.0 0.00 0.00 0.00 75 1019.7
20260507025158 16 343 3.2 6.4 0.00 0.00 0.00 74 1019.6
20260507024657 16 348 3.2 6.4 0.00 0.00 0.00 74 1019.5
20260507024157 16 306 3.2 6.4 0.00 0.00 0.00 74 1019.5
20260507023658 16 303 3.2 6.4 0.00 0.00 0.00 74 1019.4
20260507023158 16 46 3.2 6.4 0.00 0.00 0.00 74 1019.4
20260507022659 16 308 3.2 6.4 0.00 0.00 0.00 73 1019.5
20260507022158 16 293 3.2 6.4 0.00 0.00 0.00 73 1019.4
20260507022128 16 309 3.2 6.4 0.00 0.00 0.00 73 1019.5
20260507021128 16 358 3.2 6.4 0.00 0.00 0.00 73 1019.4
20260507020853 16 309 3.2 6.4 0.00 0.00 0.00 73 1019.5
20260507020128 16 326 1.6 3.2 0.00 0.00 0.00 72 1019.4
20260507015628 17 4 3.2 3.2 0.00 0.00 0.00 73 1019.5
20260507015124 17 307 3.2 4.8 0.00 0.00 0.00 72 1019.5
20260507014850 17 300 3.2 8.0 0.00 0.00 0.00 71 1019.5
20260507014112 17 322 3.2 8.0 0.00 0.00 0.00 70 1019.6
20260507013833 17 337 3.2 4.8 0.00 0.00 0.00 71 1019.6
20260507013110 17 305 3.2 4.8 0.00 0.00 0.00 71 1019.6
20260507012556 17 312 3.2 6.4 0.00 0.00 0.00 71 1019.6
20260507012056 17 323 3.2 6.4 0.00 0.00 0.00 71 1019.5
20260507011555 17 321 3.2 6.4 0.00 0.00 0.00 70 1019.5
20260507011325 18 309 3.2 4.8 0.00 0.00 0.00 70 1019.5
20260507010556 18 305 3.2 6.4 0.00 0.00 0.00 70 1019.5
20260507010055 18 331 3.2 6.4 0.00 0.00 0.00 69 1019.5
20260507005555 18 330 3.2 6.4 0.00 0.00 0.00 69 1019.5
20260507005055 18 309 4.8 6.4 0.00 0.00 0.00 69 1019.5
20260507004556 18 330 3.2 6.4 0.00 0.00 0.00 69 1019.5
20260507004055 18 335 3.2 6.4 0.00 0.00 0.00 68 1019.5
20260507003541 18 78 3.2 6.4 0.00 0.00 0.00 68 1019.4
20260507003041 18 320 3.2 4.8 0.00 0.00 0.00 68 1019.4
20260507002540 18 340 3.2 6.4 0.00 0.00 0.00 70 1019.3
20260507002026 18 321 4.8 6.4 0.00 0.00 0.00 70 1019.3
20260507001750 18 325 3.2 4.8 0.00 0.00 0.00 70 1019.4
20260507001027 19 325 3.2 6.4 0.00 0.00 0.00 70 1019.3
20260507000527 19 310 3.2 6.4 0.00 0.00 0.00 70 1019.3
20260507000027 19 332 3.2 6.4 0.00 0.00 0.00 70 1019.3
20260506235526 19 326 3.2 6.4 0.00 0.00 0.00 69 1019.3
20260506235025 19 31 1.6 4.8 0.00 0.00 0.00 68 1019.3
20260506234751 19 317 3.2 4.8 0.00 0.00 0.00 69 1019.2
20260506234025 20 74 1.6 4.8 0.00 0.00 0.00 68 1019.2
20260506233525 20 301 1.6 3.2 0.00 0.00 0.00 67 1019.2
20260506233026 20 47 1.6 3.2 0.00 0.00 0.00 67 1019.2
20260506232525 20 64 1.6 3.2 0.00 0.00 0.00 68 1019.2
20260506232011 20 2 1.6 4.8 0.00 0.00 0.00 67 1019.2
20260506231512 20 94 1.6 4.8 0.00 0.00 0.00 67 1019.2
20260506231013 20 12 1.6 3.2 0.00 0.00 0.00 66 1019.3
20260506230512 20 352 1.6 3.2 0.00 0.00 0.00 66 1019.3
20260506230017 20 316 1.6 3.2 0.00 0.00 0.00 65 1019.4
20260506225517 20 280 1.6 3.2 0.00 0.00 0.00 65 1019.5
20260506225016 20 296 1.6 4.8 0.00 0.00 0.00 66 1019.5
20260506224517 20 181 1.6 4.8 0.00 0.00 0.00 66 1019.5
20260506224018 19 53 1.6 4.8 0.00 0.00 0.00 67 1019.6
20260506223517 19 119 1.6 6.4 0.00 0.00 0.00 67 1019.6
20260506223002 18 86 1.6 6.4 0.00 0.00 0.00 69 1019.7
20260506222723 18 87 1.6 4.8 0.00 0.00 0.00 70 1019.8
20260506221958 18 51 1.6 3.2 0.00 0.00 0.00 70 1019.8
20260506221726 18 64 1.6 6.4 0.00 0.00 0.00 71 1019.8
20260506220958 19 312 1.6 6.4 0.00 0.00 0.00 70 1019.8
20260506220459 19 328 1.6 6.4 0.00 0.00 0.00 68 1019.8
20260506215958 19 0 1.6 3.2 0.00 0.00 0.00 67 1019.8
20260506215459 19 239 1.6 3.2 0.00 0.00 0.00 68 1019.8
20260506214959 20 313 3.2 4.8 0.00 0.00 0.00 67 1019.8
20260506214459 20 57 1.6 4.8 0.00 0.00 0.00 66 1019.8
20260506213959 20 169 1.6 3.2 0.00 0.00 0.00 65 1019.9
20260506213458 19 235 1.6 3.2 0.00 0.00 0.00 67 1019.8
20260506212944 18 216 3.2 6.4 0.00 0.00 0.00 70 1019.9
20260506212444 18 172 3.2 6.4 0.00 0.00 0.00 71 1020.0
20260506211944 18 33 1.6 4.8 0.00 0.00 0.00 71 1020.0
20260506211448 18 84 1.6 4.8 0.00 0.00 0.00 72 1020.2
20260506210938 17 41 1.6 4.8 0.00 0.00 0.00 74 1020.1
20260506210436 17 348 1.6 3.2 0.00 0.00 0.00 74 1020.2
20260506205938 17 340 1.6 3.2 0.00 0.00 0.00 74 1020.2
20260506205436 17 322 1.6 3.2 0.00 0.00 0.00 74 1020.2
20260506204928 17 17 1.6 3.2 0.00 0.00 0.00 74 1020.2
20260506204434 17 6 1.6 4.8 0.00 0.00 0.00 74 1020.2
20260506203934 17 91 3.2 8.0 0.00 0.00 0.00 74 1020.2
20260506203415 17 55 3.2 8.0 0.00 0.00 0.00 73 1020.2
20260506202915 17 130 1.6 4.8 0.00 0.00 0.00 74 1020.2
20260506202419 17 65 3.2 6.4 0.00 0.00 0.00 75 1020.2
20260506201919 17 101 3.2 6.4 0.00 0.00 0.00 75 1020.1
20260506201400 17 71 3.2 6.4 0.00 0.00 0.00 77 1020.2
20260506200904 17 50 1.6 6.4 0.00 0.00 0.00 74 1020.3
20260506200404 16 109 1.6 3.2 0.00 0.00 0.00 78 1020.4
20260506200131 16 337 3.2 4.8 0.00 0.00 0.00 78 1020.4
20260506195631 16 88 3.2 4.8 0.00 0.00 0.00 78 1020.4
20260506194905 16 82 3.2 3.2 0.00 0.00 0.00 79 1020.5
20260506194405 16 53 1.6 3.2 0.00 0.00 0.00 78 1020.6
20260506193850 16 14 1.6 3.2 0.00 0.00 0.00 78 1020.6
20260506193346 16 161 1.6 3.2 0.00 0.00 0.00 78 1020.6
20260506192846 16 315 1.6 3.2 0.00 0.00 0.00 77 1020.6
20260506192331 16 115 1.6 3.2 0.00 0.00 0.00 77 1020.6
20260506191831 16 3 1.6 3.2 0.00 0.00 0.00 78 1020.5
20260506191336 16 76 1.6 3.2 0.00 0.00 0.00 78 1020.5
20260506190831 16 144 1.6 4.8 0.00 0.00 0.00 78 1020.4
20260506190330 16 51 1.6 4.8 0.00 0.00 0.00 79 1020.5
20260506185830 16 82 3.2 3.2 0.00 0.00 0.00 80 1020.5
20260506185330 16 193 1.6 3.2 0.00 0.00 0.00 80 1020.5
20260506184830 16 140 1.6 4.8 0.00 0.00 0.00 81 1020.4
20260506184334 16 27 1.6 4.8 0.00 0.00 0.00 81 1020.4
20260506183834 15 300 1.6 3.2 0.00 0.00 0.00 81 1020.4
20260506183331 15 94 1.6 3.2 0.00 0.00 0.00 81 1020.4
20260506182831 15 177 1.6 3.2 0.00 0.00 0.00 82 1020.4
20260506182317 15 134 1.6 3.2 0.00 0.00 0.00 82 1020.4
20260506181817 15 102 1.6 3.2 0.00 0.00 0.00 82 1020.5
20260506181317 15 255 1.6 3.2 0.00 0.00 0.00 82 1020.5
20260506181042 15 297 1.6 3.2 0.00 0.00 0.00 82 1020.4
20260506180317 15 58 1.6 3.2 0.00 0.00 0.00 82 1020.4
20260506175817 15 97 1.6 3.2 0.00 0.00 0.00 82 1020.4
20260506175542 15 85 1.6 3.2 0.00 0.00 0.00 82 1020.4
20260506174817 15 358 1.6 3.2 0.00 0.00 0.00 83 1020.5
20260506174317 15 116 1.6 1.6 0.00 0.00 0.00 83 1020.4
20260506173803 15 79 1.6 1.6 0.00 0.00 0.00 82 1020.4
20260506173248 15 172 1.6 3.2 0.00 0.00 0.00 82 1020.3
20260506172748 15 87 1.6 3.2 0.00 0.00 0.00 82 1020.3
20260506172248 14 139 1.6 3.2 0.00 0.00 0.00 83 1020.2
20260506171752 14 68 1.6 3.2 0.00 0.00 0.00 82 1020.1
20260506171248 14 63 1.6 3.2 0.00 0.00 0.00 83 1020.2
20260506170748 14 102 1.6 3.2 0.00 0.00 0.00 83 1020.1
20260506170248 14 316 1.6 3.2 0.00 0.00 0.00 83 1020.1
20260506170241 14 52 1.6 3.2 0.00 0.00 0.00 83 1020.2
20260506165249 14 280 1.6 3.2 0.00 0.00 0.00 84 1020.3
20260506164740 14 29 1.6 3.2 0.00 0.00 0.00 83 1020.3
20260506164234 14 47 1.6 3.2 0.00 0.00 0.00 83 1020.2
20260506163734 14 349 1.6 3.2 0.00 0.00 0.00 83 1020.2
20260506163234 14 87 1.6 3.2 0.00 0.00 0.00 84 1020.1
20260506162736 13 311 1.6 3.2 0.00 0.00 0.00 84 1020.3
20260506162235 13 293 1.6 3.2 0.00 0.00 0.00 84 1020.1
20260506161734 13 78 1.6 3.2 0.00 0.00 0.00 85 1020.0
20260506161233 13 92 1.6 3.2 0.00 0.00 0.00 85 1020.0
20260506160732 13 44 1.6 3.2 0.00 0.00 0.00 85 1020.0
20260506160233 13 304 1.6 3.2 0.00 0.00 0.00 84 1020.1
20260506155733 13 270 1.6 3.2 0.00 0.00 0.00 85 1019.7
20260506155233 13 71 1.6 3.2 0.00 0.00 0.00 85 1019.7
20260506154734 13 0 1.6 3.2 0.00 0.00 0.00 86 1019.7
20260506154237 13 71 3.2 3.2 0.00 0.00 0.00 86 1019.5
20260506153720 13 71 1.6 4.8 0.00 0.00 0.00 86 1019.5
20260506153442 13 142 1.6 4.8 0.00 0.00 0.00 87 1019.7
20260506152725 13 64 1.6 3.2 0.00 0.00 0.00 87 1020.0
20260506152209 13 42 1.6 3.2 0.00 0.00 0.00 87 1020.1
20260506151710 13 276 1.6 3.2 0.00 0.00 0.00 87 1020.2
20260506151209 13 33 1.6 4.8 0.00 0.00 0.00 87 1020.2
20260506150709 13 59 1.6 4.8 0.00 0.00 0.00 88 1020.2
20260506150210 13 317 3.2 4.8 0.00 0.00 0.00 87 1020.2
20260506145710 13 359 1.6 4.8 0.00 0.00 0.00 87 1020.2
20260506145210 13 293 1.6 4.8 0.00 0.00 0.00 87 1020.2
20260506144706 13 306 1.6 4.8 0.00 0.00 0.00 87 1019.9
20260506144206 13 21 1.6 3.2 0.00 0.00 0.00 87 1019.9
20260506143651 13 358 1.6 3.2 0.00 0.00 0.00 88 1020.0
20260506143151 13 343 1.6 3.2 0.00 0.00 0.00 87 1019.8
20260506142916 13 288 1.6 3.2 0.00 0.00 0.00 88 1019.7
20260506142152 13 347 1.6 3.2 0.00 0.00 0.00 88 1019.6
20260506141651 13 46 1.6 3.2 0.00 0.00 0.00 88 1019.4
20260506141152 13 42 1.6 4.8 0.00 0.00 0.00 87 1019.3
20260506140652 13 67 1.6 4.8 0.00 0.00 0.00 88 1019.3
20260506140152 13 294 1.6 3.2 0.00 0.00 0.00 88 1019.4
20260506135651 13 352 1.6 3.2 0.00 0.00 0.00 88 1019.4
20260506135152 13 28 1.6 3.2 0.00 0.00 0.00 88 1019.4
20260506134652 13 49 1.6 3.2 0.00 0.00 0.00 88 1019.3
20260506134137 13 168 1.6 3.2 0.00 0.00 0.00 88 1019.2
20260506133637 13 290 1.6 3.2 0.00 0.00 0.00 88 1019.2
20260506133141 13 51 1.6 1.6 0.00 0.00 0.00 88 1019.2
20260506132642 13 60 1.6 1.6 0.00 0.00 0.00 88 1019.1
20260506132142 13 57 1.6 3.2 0.00 0.00 0.00 88 1019.1
20260506131642 13 0 0.0 3.2 0.00 0.00 0.00 88 1019.0
20260506131141 13 83 1.6 3.2 0.00 0.00 0.00 88 1018.9
20260506130636 13 96 1.6 3.2 0.00 0.00 0.00 88 1018.8
20260506130136 13 79 1.6 3.2 0.00 0.00 0.00 88 1018.8
20260506125856 13 71 1.6 3.2 0.00 0.00 0.00 88 1018.8
20260506125123 13 75 1.6 3.2 0.00 0.00 0.00 88 1018.8
20260506124624 13 90 1.6 3.2 0.00 0.00 0.00 87 1018.7
20260506124125 13 76 1.6 3.2 0.00 0.00 0.00 88 1018.7
20260506123625 13 88 1.6 3.2 0.00 0.00 0.00 87 1018.6
20260506123110 13 88 1.6 3.2 0.00 0.00 0.00 88 1018.6
20260506122611 13 72 1.6 3.2 0.00 0.00 0.00 87 1018.7
20260506122110 13 0 1.6 3.2 0.00 0.00 0.00 87 1018.7
20260506121611 13 61 1.6 3.2 0.00 0.00 0.00 87 1018.7
20260506121111 13 67 1.6 3.2 0.00 0.00 0.00 87 1018.7
20260506120612 13 294 1.6 3.2 0.00 0.00 0.00 87 1018.7
20260506120111 13 68 1.6 3.2 0.00 0.00 0.00 87 1018.6
20260506115557 13 314 1.6 3.2 0.00 0.00 0.00 87 1018.7
20260506115054 13 69 1.6 3.2 0.00 0.00 0.00 87 1018.6
20260506114554 13 52 1.6 3.2 0.00 0.00 0.00 87 1018.5
20260506114054 13 44 1.6 3.2 0.00 0.00 0.00 86 1018.4
20260506113554 13 20 1.6 3.2 0.00 0.00 0.00 86 1018.4
20260506113054 13 311 1.6 3.2 0.00 0.00 0.00 86 1018.4
20260506112555 13 50 1.6 4.8 0.00 0.00 0.00 86 1018.4
20260506112054 13 292 1.6 4.8 0.00 0.00 0.00 86 1018.4
20260506111815 13 320 1.6 4.8 0.00 0.00 0.00 86 1018.3
20260506111055 13 32 1.6 3.2 0.00 0.00 0.00 85 1018.2
20260506110555 13 78 1.6 3.2 0.00 0.00 0.00 85 1018.2